Voltar ao catálogo

DEB KOSMOS-2566

AtivoLEO
NORAD 54817·DEBRIS·🇷🇺 Russia
Este nome de satélite ainda não foi confirmado por fontes oficiais.

Lançado Nov 30, 2022 de Plesetsk Cosmodrome

Loading…

Próximas Passagens (próximas 24 horas)

TLE

ObsoletoSource: Space-Track

Época: Jun 17, 2026, 14:19 UTC

1 54817U 22163D   26168.59719526 -.00000064  00000-0  79126-5 0  9997
2 54817  67.1394 102.5189 0002956  88.3599 271.7825 13.97477984177542

Acompanhe DEB KOSMOS-2566 em tempo real com AllMySat

Download on the App Store